Haikou,

12:04 PM CST on December 03, 2016 (GMT +0800)
Haikou

Weather History for ZJHK - October, 2012

Change the Weather History Date:

Monday, October 8, 2012

  Actual Average Record
Temperature  
Mean Temperature 79 °F -  
Max Temperature 87 °F - - ()
Min Temperature 71 °F - - ()
Cooling Degree Days 14    
Growing Degree Days 29 (Base 50)    
Moisture  
Dew Point 73 °F    
Average Humidity 81    
Maximum Humidity 100    
Minimum Humidity 51    
Precipitation  
Precipitation 0.00 in - - ()
Sea Level Pressure  
Sea Level Pressure 29.92 in    
Wind  
Wind Speed 5 mph ()    
Max Wind Speed 16 mph    
Max Gust Speed -    
Visibility 5.6 miles    
Events Fog    
T = Trace of Precipitation, MM = Missing Value Source: Averaged Metar Reports

Daily Weather History Graph

Daily Weather History Graph

Search for Another Location

Airport or City:

Trip Planner

Search our weather history database for the weather conditions in past years. The results will help you decide how hot, cold, wet, or windy it might be!

Date:

Astronomy

Oct. 08, 2012 Rise Set
Actual Time 6:30 AM CST 6:20 PM CST
Civil Twilight 6:08 AM CST 6:42 PM CST
Nautical Twilight 5:43 AM CST 7:07 PM CST
Astronomical Twilight 5:17 AM CST 7:33 PM CST
Moon No Moon Rise 12:56 PM CST (10/8)
Length of Visible Light 12h 33m
Length of Day
11h 49m
Waning Gibbous, 51% of the Moon is Illuminated
Oct 8
Waning Gibbous
Oct 8
Last Quarter
Oct 15
New
Oct 22
First Quarter
Oct 30
Full

Hourly Weather History & Observations

Time (CST) Temp. Heat Index Dew Point Humidity Pressure Visibility Wind Dir Wind Speed Gust Speed Precip Events Conditions
12:00 AM 75.2 °F - 73.4 °F 94% 29.95 in 5.0 mi ESE 2.2 mph - N/A   Unknown
1:00 AM 73.4 °F - 73.4 °F 100% 29.95 in 5.0 mi East 2.2 mph - N/A   Unknown
2:00 AM 78 °F - 71 °F 75% 29.93 in 12 mi East 8.9 mph - -   Scattered Clouds
2:00 AM 73.4 °F - 73.4 °F 100% 29.92 in 3.7 mi SE 2.2 mph - N/A   Unknown
3:00 AM 73.4 °F - 73.4 °F 100% 29.92 in 3.7 mi ESE 2.2 mph - N/A   Unknown
4:00 AM 71.6 °F - 71.6 °F 100% 29.92 in 3.7 mi Calm Calm - N/A   Unknown
5:00 AM 71.6 °F - 71.6 °F 100% 29.92 in 3.1 mi Calm Calm - N/A   Mist
6:00 AM 71.6 °F - 71.6 °F 100% 29.92 in 2.5 mi Calm Calm - N/A Fog Patches of Fog
7:00 AM 71.6 °F - 71.6 °F 100% 29.95 in 1.9 mi East 2.2 mph - N/A   Scattered Clouds
8:00 AM 77.0 °F - 77.0 °F 100% 29.95 in 1.9 mi Calm Calm - N/A   Mist
9:00 AM 82.4 °F 89.5 °F 75.2 °F 79% 29.98 in 3.7 mi East 8.9 mph - N/A   Unknown
10:00 AM 84.2 °F 89.6 °F 71.6 °F 66% 29.98 in 3.7 mi East 15.7 mph - N/A   Unknown
11:00 AM 85 °F - 69 °F 51% 29.97 in 16 mi East 13.4 mph - -   Mostly Cloudy
11:00 AM 86.0 °F 91.8 °F 71.6 °F 62% 29.98 in 3.7 mi East 11.2 mph - N/A   Scattered Clouds
12:00 PM 87.8 °F 92.6 °F 69.8 °F 55% 29.95 in 3.7 mi East 8.9 mph - N/A   Scattered Clouds
1:00 PM 87.8 °F 93.8 °F 71.6 °F 58% 29.89 in 5.0 mi ENE 11.2 mph - N/A   Scattered Clouds
2:00 PM 86 °F - 71 °F 52% 29.89 in 16 mi ENE 13.4 mph - -   Partly Cloudy
2:00 PM 87.8 °F 93.8 °F 71.6 °F 58% 29.89 in 5.0 mi ENE 13.4 mph - N/A   Scattered Clouds
3:00 PM 86.0 °F 90.4 °F 69.8 °F 58% 29.86 in 5.0 mi ENE 13.4 mph - N/A   Scattered Clouds
4:00 PM 82.4 °F 88.2 °F 73.4 °F 74% 29.86 in 5.0 mi NE 11.2 mph - N/A   Partly Cloudy
5:00 PM 83 °F - 71 °F 60% 29.87 in 12 mi East 8.9 mph - -   Scattered Clouds
5:00 PM 82.4 °F 89.5 °F 75.2 °F 79% 29.86 in 5.0 mi ENE 11.2 mph - N/A   Unknown
6:00 PM 80.6 °F 86.2 °F 75.2 °F 84% 29.89 in 3.7 mi East 11.2 mph - N/A   Unknown
7:00 PM 78.8 °F - 75.2 °F 89% 29.89 in 3.1 mi East 8.9 mph - N/A   Mist
8:00 PM 80 °F - 72 °F 70% 29.91 in 12 mi East 8.9 mph - -   Scattered Clouds
8:00 PM 77.0 °F - 77.0 °F 100% 29.92 in 3.1 mi ESE 2.2 mph - N/A   Mist
9:00 PM 77.0 °F - 75.2 °F 94% 29.92 in 2.5 mi ESE 4.5 mph - N/A   Mist
10:00 PM 75.2 °F - 75.2 °F 100% 29.92 in 2.5 mi SE 2.2 mph - N/A   Mist
11:00 PM 78 °F - 71 °F 74% 29.94 in 12 mi Calm Calm - -   Scattered Clouds
11:00 PM 73.4 °F - 73.4 °F 100% 29.92 in 1.9 mi Calm Calm - N/A   Mist